EW3871 Bellvis ES current weather conditions

sailwx.info

Wind from 285

Air temperature 20.6° C
Dewpoint 16.0° C

Last reported at 2020-Aug-12 05:00 UTC.
Time now 2020-Aug-12 05:53 UTC

Location: N 41°40' E 000°49'.
View on Google Maps.

See reports from other nearby stations

  
Tides and Currents Weather Stations Pressure Air Temp Water Temp Dewpoint Dewpoint Depression Visibility Wind Speed Wind Dir Waves Ship Positions
date/time (UTC)wind fromknots sea level pressurealtimeterstation pressurevisibilityair tempwater tempwave heightnotes
2020-Aug-12 05:00 285 20.6
2020-Aug-12 04:45 263 20.6
2020-Aug-12 04:30 260 20.6
2020-Aug-12 04:16 204 21.1
2020-Aug-12 04:01 224 21.1
2020-Aug-12 03:46 279 0 gusting 3 21.1
2020-Aug-12 03:31 285 1 gusting 4 21.7
2020-Aug-12 03:16 198 2 gusting 5 21.7
2020-Aug-12 03:01 134 1 gusting 4 21.7
2020-Aug-12 02:46 134 1 gusting 3 21.7
2020-Aug-12 02:31 123 0 gusting 4 22.2
2020-Aug-12 02:16 108 0 gusting 4 22.2
2020-Aug-12 02:01 079 1 gusting 4 23.3
2020-Aug-12 01:47 223 23.3
2020-Aug-12 01:31 224 0 gusting 3 23.3
2020-Aug-12 01:16 253 23.3
2020-Aug-12 01:00 225 1 gusting 4 23.3
2020-Aug-12 00:45 104 1 gusting 5 22.8
2020-Aug-12 00:31 079 3 gusting 6 22.8
2020-Aug-12 00:15 062 3 gusting 5 22.8
2020-Aug-12 00:00 142 23.3
2020-Aug-11 23:46 072 0 gusting 6 23.3
2020-Aug-11 23:30 091 4 gusting 6 24.4
2020-Aug-11 23:16 067 2 gusting 5 24.4
2020-Aug-11 23:00 089 2 gusting 3 25.6
2020-Aug-11 22:45 034 25.6
2020-Aug-11 22:30 034 25.0
2020-Aug-11 22:15 100 2 gusting 6 25.0
2020-Aug-11 21:45 053 2 gusting 5 26.1
2020-Aug-11 21:30 084 4 gusting 7 26.1
2020-Aug-11 21:15 089 3 gusting 6 26.1
2020-Aug-11 21:00 088 4 gusting 6 26.7
2020-Aug-11 20:45 096 4 gusting 6 27.2
2020-Aug-11 20:30 106 2 gusting 5 27.8
2020-Aug-11 20:15 070 0 gusting 3 27.8
2020-Aug-11 20:00 112 27.8
2020-Aug-11 19:45 086 1 gusting 2 27.8
2020-Aug-11 19:30 079 0 gusting 3 27.8
2020-Aug-11 19:15 124 0 gusting 8 28.3
2020-Aug-11 19:00 128 3 gusting 8 28.9
2020-Aug-11 18:47 144 3 gusting 10 28.9
2020-Aug-11 18:32 105 4 gusting 10 28.9
2020-Aug-11 18:16 146 3 gusting 6 29.4
2020-Aug-11 18:01 174 2 gusting 8 29.4
2020-Aug-11 17:47 212 4 gusting 7 28.9
2020-Aug-11 17:31 213 2 gusting 6 29.4
2020-Aug-11 17:18 168 1 gusting 4 29.4
2020-Aug-11 17:03 115 4 gusting 6 29.4
2020-Aug-11 16:46 060 4 gusting 8 30.0
2020-Aug-11 16:32 064 1 gusting 4 29.4
2020-Aug-11 16:16 062 2 gusting 6 30.6
2020-Aug-11 16:01 068 3 gusting 4 30.6
2020-Aug-11 15:45 126 30.6
2020-Aug-11 15:32 129 1 gusting 2 31.1
2020-Aug-11 15:16 075 1 gusting 6 31.7
2020-Aug-11 15:02 058 4 gusting 6 32.2
2020-Aug-11 14:46 054 2 gusting 4 32.8
2020-Aug-11 14:31 070 0 gusting 4 32.8
2020-Aug-11 14:16 037 2 gusting 4 32.2
2020-Aug-11 14:01 009 1 gusting 3 32.2
2020-Aug-11 13:46 320 1 gusting 4 32.2
2020-Aug-11 13:31 310 1 gusting 2 32.8
2020-Aug-11 13:15 085 1 gusting 2 32.2
2020-Aug-11 13:00 078 0 gusting 3 32.2
2020-Aug-11 12:46 092 31.7
2020-Aug-11 12:30 069 2 gusting 4 31.7
2020-Aug-11 12:16 075 1 gusting 4 32.2
2020-Aug-11 12:00 098 0 gusting 4 32.2
2020-Aug-11 11:45 087 0 gusting 4 32.2
2020-Aug-11 11:30 065 2 gusting 4 32.2
2020-Aug-11 11:15 090 1 gusting 4 32.2
2020-Aug-11 11:01 079 2 gusting 4 32.2
2020-Aug-11 10:45 074 3 gusting 6 32.2
2020-Aug-11 10:30 060 3 gusting 6 31.7
2020-Aug-11 10:15 048 2 gusting 6 31.1
2020-Aug-11 10:00 082 2 gusting 6 31.1
2020-Aug-11 09:45 082 2 gusting 4 30.6
2020-Aug-11 09:17 097 3 gusting 5 29.4
2020-Aug-11 09:01 103 3 gusting 5 28.3
2020-Aug-11 08:46 079 1 gusting 5 28.3
2020-Aug-11 08:31 091 2 gusting 6 27.8
2020-Aug-11 08:16 089 3 gusting 6 27.2
2020-Aug-11 08:01 093 4 gusting 6 26.1
2020-Aug-11 07:46 100 3 gusting 6 25.6
2020-Aug-11 07:30 072 1 gusting 3 25.0
2020-Aug-11 07:15 108 1 gusting 4 24.4
2020-Aug-11 07:00 103 3 gusting 6 23.9
2020-Aug-11 06:46 091 2 gusting 5 22.8
2020-Aug-11 06:31 082 0 gusting 6 21.7
2020-Aug-11 06:15 097 1 gusting 6 21.1
2020-Aug-11 06:00 091 2 gusting 3 21.1
2020-Aug-11 05:45 082 0 gusting 1 20.6
2020-Aug-11 05:30 140 1 gusting 4 20.6
2020-Aug-11 05:15 106 0 gusting 4 20.0
2020-Aug-11 05:00 089 3 gusting 5 20.6
2020-Aug-11 04:45 091 4 gusting 8 20.6
2020-Aug-11 04:30 072 2 gusting 5 21.1
2020-Aug-11 04:15 068 2 gusting 4 21.1
2020-Aug-11 04:00 079 1 gusting 3 21.7
2020-Aug-11 03:45 129 2 gusting 3 21.1
2020-Aug-11 03:30 141 21.1
2020-Aug-11 03:15 105 21.7
2020-Aug-11 03:00 125 2 gusting 4 22.2
2020-Aug-11 02:45 074 1 gusting 3 22.8
2020-Aug-11 02:30 050 3 gusting 5 23.3
2020-Aug-11 02:15 097 2 gusting 5 23.3
2020-Aug-11 02:00 167 1 gusting 6 23.9
2020-Aug-11 01:45 210 7 gusting 13 23.9
2020-Aug-11 01:33 209 7 gusting 19 22.8
2020-Aug-11 01:16 067 5 gusting 9 21.7
2020-Aug-11 01:01 104 2 gusting 4 21.7
2020-Aug-11 00:46 135 22.2
2020-Aug-11 00:32 134 22.2
2020-Aug-11 00:16 056 22.8
2020-Aug-11 00:01 281 3 gusting 11 21.7
2020-Aug-10 23:46 058 2 gusting 4 21.7
2020-Aug-10 23:31 063 2 gusting 5 22.8
2020-Aug-10 23:16 075 23.3
2020-Aug-10 23:01 078 0 gusting 6 23.9
2020-Aug-10 22:46 138 3 gusting 6 23.9
2020-Aug-10 22:31 140 4 gusting 6 22.8
2020-Aug-10 22:17 129 2 gusting 5 22.8
2020-Aug-10 22:01 086 22.8
2020-Aug-10 21:45 117 22.8
2020-Aug-10 21:31 089 22.8
2020-Aug-10 21:15 097 1 gusting 3 23.3
2020-Aug-10 21:01 091 0 gusting 1 23.9
2020-Aug-10 20:45 078 24.4
2020-Aug-10 20:30 081 0 gusting 4 24.4
2020-Aug-10 20:16 058 25.0
2020-Aug-10 20:00 108 25.0
2020-Aug-10 19:46 110 0 gusting 2 25.6
2020-Aug-10 19:30 195 26.7
2020-Aug-10 19:16 288 0 gusting 2 27.2
2020-Aug-10 19:00 287 0 gusting 2 27.8
2020-Aug-10 18:46 281 2 gusting 3 28.3
2020-Aug-10 18:30 274 1 gusting 2 28.3
2020-Aug-10 18:15 251 2 gusting 6 27.8
2020-Aug-10 18:00 160 1 gusting 6 28.3
2020-Aug-10 17:46 039 4 gusting 8 28.3
2020-Aug-10 17:30 046 3 gusting 6 28.9
2020-Aug-10 17:15 107 2 gusting 3 29.4
2020-Aug-10 17:00 143 1 gusting 4 29.4
2020-Aug-10 16:45 208 0 gusting 6 30.0
2020-Aug-10 16:30 221 5 gusting 7 30.0
2020-Aug-10 16:15 185 2 gusting 6 30.6
2020-Aug-10 16:00 237 3 gusting 8 30.6
2020-Aug-10 15:45 218 3 gusting 6 30.0
2020-Aug-10 15:30 262 0 gusting 4 29.4
2020-Aug-10 15:15 238 3 gusting 8 28.9
2020-Aug-10 15:00 165 5 gusting 7 28.9
2020-Aug-10 14:45 121 6 gusting 8 28.3
2020-Aug-10 14:30 058 5 gusting 12 27.8
2020-Aug-10 14:15 059 4 gusting 7 27.8
2020-Aug-10 14:01 331 1 gusting 7 27.8
2020-Aug-10 13:47 266 1 gusting 7 27.8
2020-Aug-10 13:31 279 2 gusting 8 28.3
2020-Aug-10 13:18 210 6 gusting 19 28.3
2020-Aug-10 13:02 098 9 gusting 14 27.8
2020-Aug-10 12:46 023 2 gusting 3 29.4
2020-Aug-10 12:31 264 1 gusting 6 29.4
2020-Aug-10 12:17 253 6 gusting 10 30.0
2020-Aug-10 12:01 235 2 gusting 5 30.6
2020-Aug-10 11:46 105 3 gusting 12 31.1
2020-Aug-10 11:31 041 8 gusting 11 30.0
2020-Aug-10 11:16 028 6 gusting 8 29.4
2020-Aug-10 11:01 297 7 gusting 13 28.3
2020-Aug-10 10:46 268 4 gusting 13 28.3
2020-Aug-10 10:31 114 6 gusting 9 28.9
2020-Aug-10 10:16 250 30.0
2020-Aug-10 10:01 091 30.6
2020-Aug-10 09:47 102 31.1
2020-Aug-10 09:30 082 31.7
2020-Aug-10 09:00 049 2 gusting 5 30.0
2020-Aug-10 08:46 058 3 gusting 8 28.9
2020-Aug-10 08:30 043 5 gusting 8 28.3
2020-Aug-10 08:15 060 5 gusting 7 27.8
2020-Aug-10 08:00 077 3 gusting 6 26.7
2020-Aug-10 07:45 094 2 gusting 6 25.6
2020-Aug-10 07:30 082 2 gusting 7 25.0
2020-Aug-10 07:15 077 3 gusting 6 24.4
2020-Aug-10 07:00 081 3 gusting 7 23.9
2020-Aug-10 06:45 045 2 gusting 5 22.8
2020-Aug-10 06:30 089 3 gusting 6 21.7
2020-Aug-10 06:15 101 3 gusting 6 21.1
2020-Aug-10 06:00 112 1 gusting 4 20.6
2020-Aug-10 05:45 088 1 gusting 3 20.6
2020-Aug-10 05:30 087 1 gusting 4 20.6
2020-Aug-10 05:15 091 20.6
2020-Aug-10 05:00 119 1 gusting 6 20.6